Total_Precipitation_Accumulation
0.72 0.64 0.57 0.53 0.47 0.44 0.46 0.49 0.52 0.52 0.53 0.59 0.60 0.55 0.55 0.49 0.41 0.40 0.35 0.32 0.32 0.43 0.67 0.93 1.17 1.42 1.62 1.69 1.71 1.58 1.47 1.32 1.18 1.08 1.06 1.08 1.17 1.26 1.33 1.30 1.36 1.40 1.37
0.82 0.77 0.70 0.65 0.59 0.53 0.52 0.55 0.58 0.58 0.55 0.54 0.53 0.53 0.52 0.47 0.40 0.40 0.39 0.39 0.36 0.38 0.55 0.77 0.98 1.21 1.52 1.79 1.93 1.86 1.66 1.55 1.47 1.39 1.25 1.20 1.22 1.30 1.39 1.45 1.30 1.26 1.24
0.89 0.79 0.75 0.70 0.67 0.64 0.61 0.57 0.56 0.62 0.58 0.54 0.53 0.54 0.54 0.49 0.44 0.44 0.44 0.44 0.44 0.41 0.48 0.65 0.82 1.00 1.24 1.63 2.01 2.16 1.94 1.80 1.77 1.73 1.54 1.39 1.30 1.35 1.39 1.49 1.52 1.44 1.34
0.96 0.93 0.84 0.79 0.76 0.77 0.75 0.69 0.59 0.58 0.59 0.58 0.55 0.55 0.55 0.56 0.51 0.48 0.50 0.47 0.47 0.45 0.44 0.54 0.66 0.81 1.05 1.32 1.66 2.06 2.17 2.06 1.99 1.96 1.84 1.69 1.51 1.46 1.48 1.55 1.64 1.66 1.60
0.94 0.95 0.92 0.90 0.93 0.93 0.87 0.83 0.73 0.72 0.68 0.66 0.67 0.65 0.64 0.65 0.64 0.59 0.59 0.57 0.53 0.49 0.47 0.48 0.57 0.61 0.79 1.06 1.37 1.74 2.06 2.15 2.09 2.05 1.97 1.89 1.74 1.58 1.57 1.63 1.69 1.79 1.83
0.93 0.99 0.95 0.95 0.97 0.99 0.98 1.02 0.96 0.86 0.79 0.78 0.83 0.81 0.80 0.78 0.70 0.62 0.61 0.63 0.59 0.53 0.55 0.55 0.55 0.53 0.59 0.78 1.08 1.43 1.82 2.07 2.17 2.17 2.15 2.11 2.01 1.85 1.68 1.66 1.68 1.82 2.00
0.90 0.99 0.99 0.96 0.98 0.94 0.88 0.85 0.95 0.98 0.91 0.87 0.89 0.85 0.79 0.77 0.70 0.61 0.63 0.71 0.76 0.75 0.73 0.73 0.71 0.63 0.61 0.69 0.78 1.00 1.36 1.78 2.11 2.23 2.22 2.22 2.22 2.17 2.03 1.88 1.84 1.90 2.08
0.91 0.95 1.01 0.98 0.92 0.91 0.86 0.78 0.78 0.85 0.86 0.85 0.91 0.94 0.84 0.76 0.67 0.56 0.56 0.64 0.73 0.82 0.86 0.84 0.83 0.83 0.75 0.68 0.61 0.64 0.81 1.21 1.73 2.20 2.37 2.41 2.51 2.54 2.44 2.26 2.13 2.16 2.25
0.89 0.89 0.98 1.05 1.00 0.90 0.83 0.79 0.77 0.76 0.78 0.77 0.79 1.01 1.02 0.80 0.59 0.47 0.46 0.50 0.55 0.61 0.67 0.72 0.77 0.81 0.83 0.79 0.68 0.56 0.55 0.78 1.19 1.76 2.33 2.65 2.86 3.07 3.03 2.76 2.54 2.43 2.42
0.96 0.93 1.00 1.07 1.10 0.98 0.83 0.79 0.80 0.78 0.79 0.81 0.76 0.76 0.81 0.79 0.82 0.64 0.43 0.41 0.43 0.45 0.50 0.55 0.59 0.63 0.70 0.76 0.77 0.76 0.71 0.71 0.99 1.35 1.89 2.48 3.03 3.50 3.78 3.50 3.08 2.76 2.61
1.04 1.00 1.02 1.06 1.07 1.03 0.92 0.82 0.79 0.82 0.81 0.81 0.82 0.79 0.72 0.65 0.66 0.75 0.56 0.39 0.40 0.39 0.41 0.49 0.54 0.57 0.60 0.66 0.71 0.77 0.84 0.84 1.01 1.24 1.50 1.97 2.63 3.40 3.98 4.03 3.67 3.27 2.97
1.23 1.12 1.09 1.06 1.05 1.01 0.97 0.90 0.84 0.85 0.83 0.81 0.81 0.80 0.81 0.80 0.70 0.72 0.66 0.44 0.39 0.38 0.39 0.44 0.54 0.62 0.68 0.73 0.76 0.90 0.92 0.95 1.06 1.23 1.29 1.53 1.97 2.69 3.58 4.09 4.01 3.74 3.43
1.28 1.17 1.09 1.05 1.04 1.02 0.97 0.94 0.91 0.90 0.91 0.93 0.89 0.85 0.79 0.73 0.70 0.79 0.83 0.62 0.45 0.36 0.37 0.41 0.46 0.58 0.71 0.79 0.82 0.90 0.87 0.87 0.95 1.08 1.13 1.15 1.30 1.80 2.66 3.62 4.16 4.15 3.96
1.33 1.23 1.19 1.17 1.10 1.05 1.06 1.02 0.95 0.91 0.91 0.92 0.89 0.87 0.88 0.78 0.75 0.79 0.89 0.96 0.85 0.55 0.41 0.37 0.37 0.47 0.62 0.73 0.83 0.94 0.85 0.85 0.83 0.94 1.05 1.07 1.08 1.22 1.70 2.59 3.54 4.22 4.32
1.43 1.36 1.28 1.26 1.22 1.18 1.19 1.19 1.10 0.98 0.95 0.90 0.86 0.87 0.90 0.85 0.81 0.79 0.81 0.98 1.24 1.07 0.60 0.37 0.36 0.41 0.54 0.68 0.81 0.85 0.83 0.90 0.90 0.90 0.97 1.04 1.09 1.15 1.31 1.67 2.43 3.36 4.12
1.48 1.46 1.42 1.32 1.25 1.21 1.24 1.30 1.24 1.09 1.04 0.99 0.94 0.92 0.92 0.89 0.87 0.85 0.86 0.88 1.03 1.20 0.91 0.41 0.36 0.38 0.50 0.64 0.78 0.79 0.78 0.89 0.91 0.93 0.92 0.94 1.03 1.14 1.25 1.41 1.75 2.48 3.30
1.49 1.47 1.43 1.36 1.29 1.27 1.26 1.27 1.25 1.23 1.20 1.12 1.08 1.08 1.00 0.95 0.99 0.95 0.94 0.94 0.95 1.09 1.10 0.54 0.37 0.41 0.55 0.68 0.74 0.75 0.75 0.77 0.79 0.89 0.93 0.94 0.95 1.03 1.17 1.31 1.48 1.86 2.55
1.29 1.39 1.44 1.43 1.35 1.28 1.31 1.37 1.32 1.28 1.28 1.25 1.21 1.18 1.12 1.10 1.09 1.04 1.08 1.05 0.97 0.97 1.10 0.86 0.52 0.48 0.55 0.64 0.72 0.79 0.80 0.80 0.78 0.86 0.90 0.98 1.03 1.04 1.09 1.21 1.35 1.51 1.88
1.37 1.36 1.41 1.42 1.38 1.38 1.39 1.39 1.39 1.37 1.34 1.29 1.29 1.31 1.27 1.26 1.24 1.18 1.17 1.18 1.11 1.03 1.06 1.07 0.75 0.58 0.61 0.68 0.80 0.87 0.90 0.95 0.93 0.96 0.96 0.99 1.09 1.15 1.14 1.19 1.33 1.42 1.52
1.54 1.56 1.51 1.48 1.44 1.46 1.67 1.71 1.59 1.53 1.44 1.37 1.35 1.37 1.39 1.41 1.40 1.40 1.46 1.44 1.43 1.42 1.34 1.29 1.05 0.83 0.78 0.80 0.93 0.99 0.99 0.99 1.04 1.01 1.06 1.02 1.06 1.13 1.16 1.14 1.17 1.22 1.36
1.66 1.66 1.68 1.60 1.56 1.63 1.92 2.06 1.84 1.70 1.62 1.52 1.42 1.39 1.40 1.52 1.67 1.82 1.95 1.87 1.76 1.80 1.74 1.65 1.44 1.18 1.03 1.03 1.12 1.08 1.12 1.07 1.11 1.11 1.09 1.03 0.98 0.95 1.01 1.13 1.22 1.26 1.32
1.79 1.75 1.67 1.61 1.53 1.63 2.06 2.15 1.84 1.61 1.47 1.45 1.43 1.37 1.38 1.47 1.53 1.67 1.84 1.85 1.84 1.98 2.04 1.94 1.73 1.49 1.18 1.08 1.19 1.36 1.46 1.50 1.42 1.20 1.20 1.20 1.11 1.09 1.06 1.07 1.24 1.31 1.37
1.71 1.71 1.66 1.58 1.49 1.50 1.95 2.06 1.81 1.44 1.28 1.27 1.24 1.23 1.24 1.31 1.43 1.33 1.47 1.55 1.57 1.66 1.82 1.92 1.95 1.63 1.38 1.28 1.53 1.74 1.75 1.73 1.46 1.25 1.41 1.56 1.42 1.34 1.24 1.26 1.38 1.31 1.37
1.55 1.54 1.47 1.42 1.36 1.43 1.84 2.05 1.86 1.35 1.20 1.18 1.16 1.15 1.13 1.12 1.22 1.40 1.45 1.41 1.28 1.27 1.44 1.61 1.77 1.65 1.55 1.62 1.93 2.21 2.28 2.29 1.97 1.60 1.54 1.79 1.63 1.57 1.50 1.43 1.45 1.34 1.36
1.29 1.33 1.31 1.27 1.24 1.27 1.59 1.92 1.84 1.39 1.32 1.23 1.18 1.19 1.20 1.10 1.29 1.53 1.55 1.47 1.28 1.16 1.24 1.48 1.68 1.79 1.89 2.06 2.32 2.68 2.80 2.89 2.69 2.19 1.87 1.90 1.78 1.70 1.71 1.66 1.60 1.52 1.41
1.13 1.14 1.19 1.20 1.19 1.20 1.39 1.72 1.84 1.46 1.38 1.29 1.23 1.26 1.42 1.38 1.43 1.52 1.51 1.57 1.54 1.24 1.10 1.18 1.28 1.40 1.49 1.67 2.06 2.30 2.50 2.76 2.71 2.53 2.08 2.01 2.00 1.99 2.18 1.85 1.59 1.47 1.41